| time (UTC) | temp F | wind direction | speed MPH | gust MPH | rain 1hr in | rain 24hr in | rain mn in | humidity % | barometer mb |
| 20260903100004 | 70 | 201 | 3.0 | 10.0 | 0.00 | 0.00 | 0.00 | 59 | 1021.3 |
| 20260903095504 | 69 | 240 | 6.0 | 12.0 | 0.00 | 0.00 | 0.00 | 58 | 1021.3 |
| 20260903095004 | 69 | 206 | 5.0 | 12.0 | 0.00 | 0.00 | 0.00 | 58 | 1021.2 |
| 20260903094504 | 69 | 239 | 3.0 | 14.0 | 0.00 | 0.00 | 0.00 | 60 | 1021.2 |
| 20260903094005 | 70 | 201 | 5.0 | 12.0 | 0.00 | 0.00 | 0.00 | 58 | 1021.2 |
| 20260903093504 | 69 | 207 | 5.0 | 13.0 | 0.00 | 0.00 | 0.00 | 59 | 1021.1 |
| 20260903093004 | 68 | 225 | 6.0 | 12.0 | 0.00 | 0.00 | 0.00 | 61 | 1021.3 |
| 20260903092503 | 68 | 216 | 7.0 | 12.0 | 0.00 | 0.00 | 0.00 | 61 | 1021.5 |
| 20260903092004 | 68 | 213 | 5.0 | 13.0 | 0.00 | 0.00 | 0.00 | 60 | 1021.4 |
| 20260903091504 | 68 | 221 | 6.0 | 13.0 | 0.00 | 0.00 | 0.00 | 59 | 1021.4 |
| 20260903091004 | 69 | 233 | 5.0 | 12.0 | 0.00 | 0.00 | 0.00 | 60 | 1021.1 |
| 20260903090504 | 68 | 221 | 5.0 | 12.0 | 0.00 | 0.00 | 0.00 | 62 | 1021.3 |
| 20260903090004 | 67 | 181 | 3.0 | 7.0 | 0.00 | 0.00 | 0.00 | 62 | 1021.5 |
| 20260903085504 | 67 | 208 | 3.0 | 8.0 | 0.00 | 0.00 | 0.00 | 63 | 1021.4 |
| 20260903084504 | 67 | 222 | 4.0 | 9.0 | 0.00 | 0.00 | 0.00 | 63 | 1021.2 |
| 20260903084004 | 67 | 235 | 5.0 | 9.0 | 0.00 | 0.00 | 0.00 | 62 | 1021.3 |
| 20260903083504 | 67 | 233 | 5.0 | 9.0 | 0.00 | 0.00 | 0.00 | 63 | 1021.2 |
| 20260903083004 | 67 | 203 | 3.0 | 7.0 | 0.00 | 0.00 | 0.00 | 65 | 1021.2 |
| 20260903082504 | 66 | 220 | 3.0 | 10.0 | 0.00 | 0.00 | 0.00 | 64 | 1021.1 |
| 20260903082004 | 66 | 206 | 6.0 | 12.0 | 0.00 | 0.00 | 0.00 | 62 | 1021.1 |
| 20260903081503 | 66 | 225 | 6.0 | 12.0 | 0.00 | 0.00 | 0.00 | 63 | 1021.0 |
| 20260903081004 | 66 | 239 | 7.0 | 12.0 | 0.00 | 0.00 | 0.00 | 63 | 1020.9 |
| 20260903080503 | 65 | 216 | 4.0 | 12.0 | 0.00 | 0.00 | 0.00 | 65 | 1021.1 |
| 20260903080003 | 64 | 220 | 4.0 | 7.0 | 0.00 | 0.00 | 0.00 | 66 | 1021.1 |
| 20260903075004 | 64 | 205 | 2.0 | 6.0 | 0.00 | 0.00 | 0.00 | 66 | 1021.1 |
| 20260903074504 | 64 | 231 | 5.0 | 9.0 | 0.00 | 0.00 | 0.00 | 66 | 1021.2 |
| 20260903074005 | 64 | 225 | 4.0 | 7.0 | 0.00 | 0.00 | 0.00 | 65 | 1021.2 |
| 20260903073504 | 64 | 212 | 3.0 | 7.0 | 0.00 | 0.00 | 0.00 | 65 | 1021.1 |
| 20260903073004 | 64 | 207 | 3.0 | 7.0 | 0.00 | 0.00 | 0.00 | 66 | 1021.0 |
| 20260903072504 | 64 | 201 | 5.0 | 9.0 | 0.00 | 0.00 | 0.00 | 66 | 1021.2 |
| 20260903072004 | 64 | 229 | 6.0 | 8.0 | 0.00 | 0.00 | 0.00 | 66 | 1021.1 |
| 20260903071504 | 63 | 220 | 3.0 | 8.0 | 0.00 | 0.00 | 0.00 | 68 | 1021.1 |
| 20260903071005 | 63 | 210 | 3.0 | 6.0 | 0.00 | 0.00 | 0.00 | 68 | 1021.0 |
| 20260903070004 | 62 | 195 | 3.0 | 6.0 | 0.00 | 0.00 | 0.00 | 68 | 1021.2 |
| 20260903064504 | 62 | 215 | 3.0 | 6.0 | 0.00 | 0.00 | 0.00 | 69 | 1021.4 |
| 20260903064004 | 62 | 212 | 2.0 | 6.0 | 0.00 | 0.00 | 0.00 | 69 | 1021.5 |
| 20260903063504 | 61 | 213 | 3.0 | 8.0 | 0.00 | 0.00 | 0.00 | 69 | 1021.6 |
| 20260903063004 | 61 | 224 | 3.0 | 7.0 | 0.00 | 0.00 | 0.00 | 69 | 1021.4 |
| 20260903062504 | 61 | 213 | 3.0 | 5.0 | 0.00 | 0.00 | 0.00 | 69 | 1021.4 |
| 20260903062004 | 61 | 209 | 2.0 | 5.0 | 0.00 | 0.00 | 0.00 | 69 | 1021.1 |
| 20260903061004 | 61 | 222 | 2.0 | 7.0 | 0.00 | 0.00 | 0.00 | 68 | 1021.1 |
| 20260903060503 | 61 | 215 | 2.0 | 5.0 | 0.00 | 0.00 | 0.00 | 69 | 1021.1 |
| 20260903060004 | 61 | 228 | 2.0 | 5.0 | 0.00 | 0.00 | 0.00 | 69 | 1021.0 |
| 20260903055503 | 60 | 212 | 2.0 | 3.0 | 0.00 | 0.00 | 0.00 | 70 | 1021.0 |
| 20260903055004 | 59 | 207 | 2.0 | 5.0 | 0.00 | 0.00 | 0.00 | 72 | 1021.1 |
| 20260903054504 | 58 | 223 | 1.0 | 3.0 | 0.00 | 0.00 | 0.00 | 73 | 1021.1 |
| 20260903053504 | 56 | 224 | 2.0 | 3.0 | 0.00 | 0.00 | 0.00 | 76 | 1021.3 |
| 20260903053004 | 57 | 225 | 1.0 | 2.0 | 0.00 | 0.00 | 0.00 | 75 | 1021.1 |
| 20260903052504 | 56 | 225 | 1.0 | 2.0 | 0.00 | 0.00 | 0.00 | 75 | 1021.1 |
| 20260903052003 | 57 | 223 | 1.0 | 3.0 | 0.00 | 0.00 | 0.00 | 74 | 1021.1 |
| 20260903051504 | 58 | 216 | 2.0 | 3.0 | 0.00 | 0.00 | 0.00 | 72 | 1021.0 |
| 20260903051004 | 58 | 214 | 1.0 | 3.0 | 0.00 | 0.00 | 0.00 | 72 | 1021.2 |
| 20260903050504 | 57 | 221 | 2.0 | 3.0 | 0.00 | 0.00 | 0.00 | 74 | 1021.1 |
| 20260903050004 | 56 | 213 | 2.0 | 3.0 | 0.00 | 0.00 | 0.00 | 75 | 1021.2 |
| 20260903045004 | 56 | 212 | 1.0 | 3.0 | 0.00 | 0.00 | 0.00 | 76 | 1020.9 |
| 20260903044503 | 56 | 208 | 1.0 | 3.0 | 0.00 | 0.00 | 0.00 | 75 | 1020.9 |
| 20260903044004 | 55 | 202 | 2.0 | 3.0 | 0.00 | 0.00 | 0.00 | 76 | 1020.8 |
| 20260903043003 | 56 | 228 | 1.0 | 3.0 | 0.00 | 0.00 | 0.00 | 75 | 1020.6 |
| 20260903042503 | 56 | 225 | 2.0 | 3.0 | 0.00 | 0.00 | 0.00 | 75 | 1020.5 |
| 20260903041003 | 55 | 229 | 1.0 | 3.0 | 0.00 | 0.00 | 0.00 | 76 | 1020.6 |
| 20260903040004 | 55 | 225 | 0.0 | 2.0 | 0.00 | 0.00 | 0.00 | 76 | 1020.4 |
| 20260903035005 | 56 | 224 | 2.0 | 3.0 | 0.00 | 0.00 | 0.00 | 75 | 1020.7 |
| 20260903034506 | 55 | 211 | 1.0 | 3.0 | 0.00 | 0.00 | 0.00 | 75 | 1020.9 |
| 20260903034006 | 55 | 221 | 1.0 | 2.0 | 0.00 | 0.00 | 0.00 | 75 | 1020.9 |
| 20260903033505 | 55 | 232 | 1.0 | 3.0 | 0.00 | 0.00 | 0.00 | 76 | 1020.8 |
| 20260903033005 | 55 | 244 | 1.0 | 3.0 | 0.00 | 0.00 | 0.00 | 76 | 1020.9 |
| 20260903032505 | 55 | 237 | 1.0 | 3.0 | 0.00 | 0.00 | 0.00 | 76 | 1020.9 |
| 20260903032006 | 55 | 228 | 1.0 | 3.0 | 0.00 | 0.00 | 0.00 | 76 | 1020.9 |
| 20260903031506 | 55 | 225 | 1.0 | 3.0 | 0.00 | 0.00 | 0.00 | 75 | 1020.9 |
| 20260903031005 | 56 | 230 | 2.0 | 3.0 | 0.00 | 0.00 | 0.00 | 75 | 1020.9 |
| 20260903030506 | 56 | 257 | 2.0 | 3.0 | 0.00 | 0.00 | 0.00 | 74 | 1020.8 |
| 20260903030007 | 56 | 244 | 1.0 | 3.0 | 0.00 | 0.00 | 0.00 | 74 | 1020.8 |
| 20260903025506 | 56 | 243 | 1.0 | 3.0 | 0.00 | 0.00 | 0.00 | 74 | 1020.9 |
| 20260903025005 | 56 | 246 | 1.0 | 3.0 | 0.00 | 0.00 | 0.00 | 74 | 1020.9 |
| 20260903024505 | 56 | 245 | 1.0 | 3.0 | 0.00 | 0.00 | 0.00 | 75 | 1020.8 |
| 20260903024006 | 56 | 244 | 2.0 | 3.0 | 0.00 | 0.00 | 0.00 | 75 | 1020.8 |
| 20260903023005 | 55 | 279 | 2.0 | 3.0 | 0.00 | 0.00 | 0.00 | 77 | 1021.0 |
| 20260903022505 | 55 | 280 | 1.0 | 3.0 | 0.00 | 0.00 | 0.00 | 77 | 1021.0 |
| 20260903022005 | 55 | 280 | 2.0 | 2.0 | 0.00 | 0.00 | 0.00 | 77 | 1021.0 |
| 20260903021005 | 55 | 280 | 2.0 | 2.0 | 0.00 | 0.00 | 0.00 | 77 | 1020.9 |
| 20260903020505 | 55 | 280 | 1.0 | 2.0 | 0.00 | 0.00 | 0.00 | 77 | 1020.9 |
| 20260903020005 | 55 | 280 | 1.0 | 2.0 | 0.00 | 0.00 | 0.00 | 77 | 1020.9 |
| 20260903015505 | 55 | 280 | 2.0 | 2.0 | 0.00 | 0.00 | 0.00 | 76 | 1020.9 |
| 20260903015005 | 55 | 280 | 1.0 | 2.0 | 0.00 | 0.00 | 0.00 | 76 | 1021.0 |
| 20260903014505 | 55 | 280 | 2.0 | 2.0 | 0.00 | 0.00 | 0.00 | 76 | 1021.0 |
| 20260903014007 | 56 | 280 | 1.0 | 2.0 | 0.00 | 0.00 | 0.00 | 76 | 1021.0 |
| 20260903013506 | 56 | 280 | 1.0 | 2.0 | 0.00 | 0.00 | 0.00 | 76 | 1021.0 |
| 20260903013005 | 56 | 280 | 2.0 | 2.0 | 0.00 | 0.00 | 0.00 | 76 | 1021.1 |
| 20260903012505 | 56 | 280 | 1.0 | 2.0 | 0.00 | 0.00 | 0.00 | 78 | 1021.2 |
| 20260903012005 | 56 | 280 | 2.0 | 2.0 | 0.00 | 0.00 | 0.00 | 77 | 1021.1 |
| 20260903011505 | 55 | 280 | 2.0 | 3.0 | 0.00 | 0.00 | 0.00 | 78 | 1021.1 |
| 20260903011005 | 55 | 282 | 2.0 | 3.0 | 0.00 | 0.00 | 0.00 | 78 | 1021.2 |
| 20260903010006 | 55 | 282 | 1.0 | 2.0 | 0.00 | 0.00 | 0.00 | 78 | 1021.2 |
| 20260903005506 | 56 | 283 | 2.0 | 3.0 | 0.00 | 0.00 | 0.00 | 77 | 1021.1 |
| 20260903005006 | 56 | 282 | 1.0 | 2.0 | 0.00 | 0.00 | 0.00 | 77 | 1021.1 |
| 20260903004506 | 56 | 284 | 1.0 | 2.0 | 0.00 | 0.00 | 0.00 | 78 | 1021.0 |
| 20260903004006 | 55 | 284 | 1.0 | 2.0 | 0.00 | 0.00 | 0.00 | 79 | 1021.1 |
| 20260903003505 | 55 | 284 | 2.0 | 3.0 | 0.00 | 0.00 | 0.00 | 79 | 1021.2 |
| 20260903002005 | 55 | 284 | 2.0 | 3.0 | 0.00 | 0.00 | 0.00 | 78 | 1021.3 |
| 20260903001505 | 55 | 284 | 2.0 | 3.0 | 0.00 | 0.00 | 0.00 | 78 | 1021.3 |
| 20260903000505 | 55 | 285 | 3.0 | 3.0 | 0.00 | 0.00 | 0.00 | 78 | 1021.2 |
| 20260902235505 | 56 | 277 | 2.0 | 3.0 | 0.00 | 0.00 | 0.00 | 77 | 1021.2 |
| 20260902234506 | 56 | 276 | 2.0 | 3.0 | 0.00 | 0.00 | 0.00 | 77 | 1021.2 |
| 20260902234006 | 56 | 269 | 2.0 | 3.0 | 0.00 | 0.00 | 0.00 | 77 | 1021.2 |
| 20260902233505 | 56 | 271 | 3.0 | 3.0 | 0.00 | 0.00 | 0.00 | 76 | 1021.3 |
| 20260902233005 | 57 | 272 | 2.0 | 3.0 | 0.00 | 0.00 | 0.00 | 75 | 1021.2 |
| 20260902232506 | 57 | 272 | 1.0 | 3.0 | 0.00 | 0.00 | 0.00 | 75 | 1021.2 |
| 20260902232006 | 57 | 271 | 1.0 | 2.0 | 0.00 | 0.00 | 0.00 | 75 | 1021.2 |
| 20260902231506 | 57 | 271 | 2.0 | 3.0 | 0.00 | 0.00 | 0.00 | 75 | 1021.2 |
| 20260902230505 | 58 | 279 | 2.0 | 6.0 | 0.00 | 0.00 | 0.00 | 74 | 1021.4 |
| 20260902230005 | 58 | 284 | 3.0 | 6.0 | 0.00 | 0.00 | 0.00 | 73 | 1021.4 |
| 20260902225505 | 57 | 279 | 3.0 | 6.0 | 0.00 | 0.00 | 0.00 | 75 | 1021.3 |
| 20260902225005 | 58 | 269 | 2.0 | 3.0 | 0.00 | 0.00 | 0.00 | 76 | 1021.3 |
| 20260902223505 | 58 | 273 | 2.0 | 3.0 | 0.00 | 0.00 | 0.00 | 75 | 1021.4 |
| 20260902222506 | 57 | 269 | 1.0 | 2.0 | 0.00 | 0.00 | 0.00 | 76 | 1021.4 |
| 20260902222005 | 57 | 269 | 1.0 | 3.0 | 0.00 | 0.00 | 0.00 | 76 | 1021.4 |
| 20260902220506 | 58 | 269 | 2.0 | 3.0 | 0.00 | 0.00 | 0.00 | 75 | 1021.3 |
| 20260902215505 | 58 | 278 | 0.0 | 2.0 | 0.00 | 0.00 | 0.00 | 74 | 1021.3 |
| 20260902215006 | 58 | 278 | 0.0 | 2.0 | 0.00 | 0.00 | 0.00 | 73 | 1021.2 |
| 20260902214505 | 59 | 278 | 1.0 | 2.0 | 0.00 | 0.00 | 0.00 | 73 | 1021.2 |
| 20260902213007 | 59 | 277 | 2.0 | 3.0 | 0.00 | 0.00 | 0.00 | 73 | 1021.2 |
| 20260902212006 | 59 | 280 | 2.0 | 3.0 | 0.00 | 0.00 | 0.00 | 74 | 1021.3 |
| 20260902211505 | 59 | 281 | 2.0 | 3.0 | 0.00 | 0.00 | 0.00 | 73 | 1021.4 |
| 20260902211006 | 59 | 281 | 2.0 | 3.0 | 0.00 | 0.00 | 0.00 | 72 | 1021.3 |
| 20260902210505 | 60 | 280 | 3.0 | 6.0 | 0.00 | 0.00 | 0.00 | 72 | 1021.3 |
| 20260902205505 | 60 | 286 | 2.0 | 3.0 | 0.00 | 0.00 | 0.00 | 71 | 1021.3 |
| 20260902205005 | 61 | 287 | 2.0 | 3.0 | 0.00 | 0.00 | 0.00 | 70 | 1021.4 |
| 20260902204505 | 61 | 287 | 2.0 | 3.0 | 0.00 | 0.00 | 0.00 | 70 | 1021.3 |
| 20260902204006 | 62 | 288 | 3.0 | 5.0 | 0.00 | 0.00 | 0.00 | 69 | 1021.3 |
| 20260902203506 | 62 | 286 | 2.0 | 3.0 | 0.00 | 0.00 | 0.00 | 68 | 1021.3 |
| 20260902203005 | 63 | 292 | 2.0 | 3.0 | 0.00 | 0.00 | 0.00 | 68 | 1021.2 |
| 20260902202505 | 63 | 286 | 2.0 | 3.0 | 0.00 | 0.00 | 0.00 | 67 | 1021.2 |
| 20260902202005 | 63 | 286 | 2.0 | 3.0 | 0.00 | 0.00 | 0.00 | 66 | 1021.2 |
| 20260902201505 | 64 | 286 | 1.0 | 2.0 | 0.00 | 0.00 | 0.00 | 65 | 1021.2 |
| 20260902201005 | 64 | 286 | 1.0 | 3.0 | 0.00 | 0.00 | 0.00 | 65 | 1021.2 |
| 20260902200504 | 64 | 285 | 2.0 | 3.0 | 0.00 | 0.00 | 0.00 | 65 | 1021.1 |
| 20260902200006 | 64 | 285 | 2.0 | 3.0 | 0.00 | 0.00 | 0.00 | 64 | 1021.2 |
| 20260902195505 | 64 | 293 | 2.0 | 2.0 | 0.00 | 0.00 | 0.00 | 63 | 1021.2 |
| 20260902195005 | 64 | 293 | 1.0 | 3.0 | 0.00 | 0.00 | 0.00 | 64 | 1021.1 |
| 20260902194505 | 64 | 292 | 2.0 | 3.0 | 0.00 | 0.00 | 0.00 | 64 | 1021.1 |
| 20260902194005 | 64 | 287 | 1.0 | 3.0 | 0.00 | 0.00 | 0.00 | 64 | 1021.0 |
| 20260902193505 | 63 | 312 | 2.0 | 3.0 | 0.00 | 0.00 | 0.00 | 66 | 1021.0 |
| 20260902193005 | 63 | 328 | 2.0 | 3.0 | 0.00 | 0.00 | 0.00 | 67 | 1020.9 |
| 20260902192506 | 63 | 318 | 1.0 | 2.0 | 0.00 | 0.00 | 0.00 | 66 | 1020.8 |
| 20260902191505 | 64 | 318 | 0.0 | 1.0 | 0.00 | 0.00 | 0.00 | 64 | 1020.7 |
| 20260902191005 | 64 | 318 | 0.0 | 1.0 | 0.00 | 0.00 | 0.00 | 64 | 1020.7 |
| 20260902190005 | 64 | 319 | 0.0 | 1.0 | 0.00 | 0.00 | 0.00 | 65 | 1020.6 |
| 20260902185505 | 64 | 319 | 0.0 | 1.0 | 0.00 | 0.00 | 0.00 | 66 | 1020.5 |
| 20260902185006 | 64 | 318 | 1.0 | 2.0 | 0.00 | 0.00 | 0.00 | 65 | 1020.4 |
| 20260902184006 | 65 | 319 | 0.0 | 2.0 | 0.00 | 0.00 | 0.00 | 63 | 1020.5 |
| 20260902183505 | 65 | 319 | 1.0 | 3.0 | 0.00 | 0.00 | 0.00 | 63 | 1020.4 |
| 20260902183005 | 66 | 317 | 1.0 | 3.0 | 0.00 | 0.00 | 0.00 | 63 | 1020.4 |
| 20260902182006 | 67 | 5 | 1.0 | 5.0 | 0.00 | 0.00 | 0.00 | 63 | 1020.3 |
| 20260902181505 | 67 | 342 | 2.0 | 5.0 | 0.00 | 0.00 | 0.00 | 63 | 1020.3 |
| 20260902181005 | 68 | 327 | 1.0 | 3.0 | 0.00 | 0.00 | 0.00 | 62 | 1020.2 |
| 20260902180505 | 68 | 320 | 2.0 | 8.0 | 0.00 | 0.00 | 0.00 | 63 | 1020.1 |
| 20260902180007 | 68 | 289 | 1.0 | 3.0 | 0.00 | 0.00 | 0.00 | 62 | 1020.1 |
| 20260902175505 | 68 | 289 | 0.0 | 1.0 | 0.00 | 0.00 | 0.00 | 63 | 1020.1 |
| 20260902175005 | 68 | 289 | 0.0 | 2.0 | 0.00 | 0.00 | 0.00 | 63 | 1020.1 |
| 20260902174505 | 68 | 289 | 1.0 | 2.0 | 0.00 | 0.00 | 0.00 | 62 | 1020.0 |
| 20260902174005 | 69 | 288 | 0.0 | 3.0 | 0.00 | 0.00 | 0.00 | 61 | 1020.0 |
| 20260902173505 | 69 | 319 | 0.0 | 0.0 | 0.00 | 0.00 | 0.00 | 61 | 1019.9 |
| 20260902173005 | 69 | 319 | 0.0 | 1.0 | 0.00 | 0.00 | 0.00 | 60 | 1019.9 |
| 20260902172505 | 69 | 322 | 1.0 | 5.0 | 0.00 | 0.00 | 0.00 | 60 | 1019.9 |
| 20260902172005 | 70 | 333 | 1.0 | 3.0 | 0.00 | 0.00 | 0.00 | 58 | 1019.9 |
| 20260902171505 | 70 | 3 | 3.0 | 8.0 | 0.00 | 0.00 | 0.00 | 59 | 1019.9 |
| 20260902171005 | 70 | 299 | 2.0 | 3.0 | 0.00 | 0.00 | 0.00 | 59 | 1019.9 |
| 20260902170505 | 70 | 0 | 2.0 | 5.0 | 0.00 | 0.00 | 0.00 | 58 | 1019.8 |
| 20260902170005 | 71 | 303 | 2.0 | 6.0 | 0.00 | 0.00 | 0.00 | 57 | 1019.8 |
| 20260902165505 | 71 | 19 | 3.0 | 7.0 | 0.00 | 0.00 | 0.00 | 56 | 1019.8 |
| 20260902165005 | 71 | 326 | 4.0 | 8.0 | 0.00 | 0.00 | 0.00 | 57 | 1019.8 |
| 20260902164505 | 71 | 351 | 2.0 | 3.0 | 0.00 | 0.00 | 0.00 | 57 | 1019.9 |
| 20260902164006 | 71 | 246 | 2.0 | 6.0 | 0.00 | 0.00 | 0.00 | 56 | 1019.8 |
| 20260902163005 | 71 | 247 | 2.0 | 5.0 | 0.00 | 0.00 | 0.00 | 56 | 1019.8 |
| 20260902162505 | 71 | 309 | 1.0 | 3.0 | 0.00 | 0.00 | 0.00 | 56 | 1019.8 |
| 20260902162005 | 71 | 280 | 2.0 | 6.0 | 0.00 | 0.00 | 0.00 | 55 | 1019.8 |
| 20260902161005 | 71 | 312 | 4.0 | 10.0 | 0.00 | 0.00 | 0.00 | 57 | 1019.8 |
| 20260902160007 | 71 | 337 | 2.0 | 8.0 | 0.00 | 0.00 | 0.00 | 57 | 1019.9 |
| 20260902155505 | 71 | 349 | 2.0 | 6.0 | 0.00 | 0.00 | 0.00 | 56 | 1019.8 |
| 20260902155005 | 71 | 319 | 2.0 | 3.0 | 0.00 | 0.00 | 0.00 | 55 | 1019.8 |
| 20260902154505 | 71 | 332 | 2.0 | 9.0 | 0.00 | 0.00 | 0.00 | 57 | 1019.9 |
| 20260902154005 | 72 | 280 | 1.0 | 3.0 | 0.00 | 0.00 | 0.00 | 58 | 1019.9 |
| 20260902153005 | 72 | 329 | 2.0 | 6.0 | 0.00 | 0.00 | 0.00 | 56 | 1020.0 |
| 20260902152506 | 71 | 255 | 1.0 | 7.0 | 0.00 | 0.00 | 0.00 | 56 | 1020.0 |
| 20260902152005 | 71 | 233 | 1.0 | 10.0 | 0.00 | 0.00 | 0.00 | 57 | 1020.0 |
| 20260902151005 | 71 | 301 | 2.0 | 8.0 | 0.00 | 0.00 | 0.00 | 56 | 1020.1 |
| 20260902150505 | 71 | 315 | 2.0 | 8.0 | 0.00 | 0.00 | 0.00 | 55 | 1020.0 |
| 20260902150006 | 72 | 253 | 2.0 | 6.0 | 0.00 | 0.00 | 0.00 | 55 | 1020.0 |
| 20260902145006 | 72 | 317 | 2.0 | 5.0 | 0.00 | 0.00 | 0.00 | 54 | 1020.0 |
| 20260902144504 | 72 | 266 | 2.0 | 6.0 | 0.00 | 0.00 | 0.00 | 56 | 1020.1 |
| 20260902144006 | 72 | 268 | 2.0 | 8.0 | 0.00 | 0.00 | 0.00 | 55 | 1020.1 |
| 20260902143505 | 73 | 313 | 3.0 | 10.0 | 0.00 | 0.00 | 0.00 | 55 | 1020.1 |
| 20260902143004 | 72 | 303 | 6.0 | 10.0 | 0.00 | 0.00 | 0.00 | 55 | 1020.1 |
| 20260902142505 | 73 | 190 | 1.0 | 12.0 | 0.00 | 0.00 | 0.00 | 54 | 1020.1 |
| 20260902142005 | 72 | 19 | 2.0 | 8.0 | 0.00 | 0.00 | 0.00 | 55 | 1020.1 |
| 20260902141505 | 72 | 222 | 3.0 | 10.0 | 0.00 | 0.00 | 0.00 | 56 | 1020.1 |
| 20260902141006 | 72 | 329 | 6.0 | 12.0 | 0.00 | 0.00 | 0.00 | 53 | 1020.1 |
| 20260902140505 | 73 | 343 | 6.0 | 10.0 | 0.00 | 0.00 | 0.00 | 54 | 1020.5 |
| 20260902140005 | 73 | 8 | 3.0 | 9.0 | 0.00 | 0.00 | 0.00 | 55 | 1020.1 |
| 20260902135505 | 73 | 19 | 2.0 | 8.0 | 0.00 | 0.00 | 0.00 | 56 | 1020.0 |
| 20260902135005 | 73 | 330 | 6.0 | 12.0 | 0.00 | 0.00 | 0.00 | 54 | 1020.0 |
| 20260902134505 | 73 | 267 | 3.0 | 10.0 | 0.00 | 0.00 | 0.00 | 52 | 1020.1 |
| 20260902134006 | 73 | 336 | 3.0 | 14.0 | 0.00 | 0.00 | 0.00 | 53 | 1020.0 |
| 20260902133505 | 73 | 332 | 1.0 | 3.0 | 0.00 | 0.00 | 0.00 | 56 | 1020.1 |
| 20260902133005 | 73 | 291 | 2.0 | 6.0 | 0.00 | 0.00 | 0.00 | 55 | 1020.1 |
| 20260902132005 | 73 | 53 | 3.0 | 12.0 | 0.00 | 0.00 | 0.00 | 55 | 1020.1 |
| 20260902131505 | 73 | 334 | 5.0 | 9.0 | 0.00 | 0.00 | 0.00 | 56 | 1020.1 |
| 20260902131005 | 73 | 330 | 5.0 | 10.0 | 0.00 | 0.00 | 0.00 | 56 | 1020.1 |
| 20260902130505 | 73 | 235 | 2.0 | 7.0 | 0.00 | 0.00 | 0.00 | 54 | 1020.1 |
| 20260902124505 | 73 | 278 | 1.0 | 7.0 | 0.00 | 0.00 | 0.00 | 57 | 1020.2 |
| 20260902124006 | 72 | 319 | 2.0 | 9.0 | 0.00 | 0.00 | 0.00 | 57 | 1020.2 |
| 20260902123505 | 72 | 288 | 1.0 | 6.0 | 0.00 | 0.00 | 0.00 | 59 | 1020.2 |
| 20260902123005 | 72 | 348 | 3.0 | 9.0 | 0.00 | 0.00 | 0.00 | 57 | 1020.2 |
| 20260902122505 | 73 | 302 | 3.0 | 7.0 | 0.00 | 0.00 | 0.00 | 56 | 1020.2 |
| 20260902122005 | 72 | 9 | 2.0 | 7.0 | 0.00 | 0.00 | 0.00 | 59 | 1020.2 |
| 20260902121505 | 72 | 337 | 4.0 | 9.0 | 0.00 | 0.00 | 0.00 | 59 | 1020.2 |
| 20260902120504 | 71 | 324 | 2.0 | 6.0 | 0.00 | 0.00 | 0.00 | 61 | 1020.2 |
| 20260902120005 | 72 | 305 | 4.0 | 8.0 | 0.00 | 0.00 | 0.00 | 61 | 1020.2 |
| 20260902115505 | 72 | 2 | 3.0 | 12.0 | 0.00 | 0.00 | 0.00 | 61 | 1020.2 |
| 20260902115005 | 72 | 355 | 3.0 | 8.0 | 0.00 | 0.00 | 0.00 | 61 | 1020.2 |
| 20260902114505 | 72 | 285 | 2.0 | 3.0 | 0.00 | 0.00 | 0.00 | 60 | 1020.2 |
| 20260902114005 | 73 | 86 | 2.0 | 6.0 | 0.00 | 0.00 | 0.00 | 59 | 1020.2 |
| 20260902113504 | 72 | 14 | 7.0 | 12.0 | 0.00 | 0.00 | 0.00 | 59 | 1020.3 |
| 20260902113005 | 72 | 25 | 7.0 | 12.0 | 0.00 | 0.00 | 0.00 | 60 | 1020.5 |
| 20260902112505 | 71 | 17 | 5.0 | 10.0 | 0.00 | 0.00 | 0.00 | 60 | 1020.5 |
| 20260902111505 | 70 | 322 | 4.0 | 10.0 | 0.00 | 0.00 | 0.00 | 62 | 1020.8 |
| 20260902111005 | 70 | 346 | 4.0 | 8.0 | 0.00 | 0.00 | 0.00 | 62 | 1020.6 |
| 20260902110505 | 70 | 43 | 3.0 | 7.0 | 0.00 | 0.00 | 0.00 | 64 | 1020.6 |
| 20260902110007 | 70 | 12 | 6.0 | 12.0 | 0.00 | 0.00 | 0.00 | 63 | 1020.7 |
| 20260902105505 | 69 | 336 | 4.0 | 10.0 | 0.00 | 0.00 | 0.00 | 65 | 1020.8 |
| 20260902105005 | 69 | 352 | 6.0 | 10.0 | 0.00 | 0.00 | 0.00 | 64 | 1020.8 |
| 20260902104006 | 70 | 329 | 3.0 | 9.0 | 0.00 | 0.00 | 0.00 | 64 | 1020.8 |
| 20260902103504 | 70 | 357 | 6.0 | 13.0 | 0.00 | 0.00 | 0.00 | 63 | 1020.8 |
| 20260902103005 | 70 | 24 | 2.0 | 12.0 | 0.00 | 0.00 | 0.00 | 60 | 1020.7 |
| 20260902102506 | 70 | 48 | 3.0 | 6.0 | 0.00 | 0.00 | 0.00 | 62 | 1020.8 |
| 20260902101504 | 70 | 296 | 2.0 | 7.0 | 0.00 | 0.00 | 0.00 | 60 | 1020.8 |
| 20260902101005 | 71 | 214 | 2.0 | 5.0 | 0.00 | 0.00 | 0.00 | 58 | 1020.8 |